FW8647 Weather Reports


time (UTC)temp
F
wind
direction
speed
knots
gust
knots
rain 1hr
in
rain 24hr
in
rain mn
in
humidity
%
barometer
mb
20260506051208 0 0.0 0.0 0.00 0.00 0.00 1011.3
20260506050203 0 0.0 0.0 0.00 0.00 0.00 1011.6
20260506044202 0 0.0 0.0 0.00 0.00 0.00 1011.6
20260506043158 0 0.0 0.0 0.00 0.00 0.00 1011.9
20260506042154 46 175 0.9 2.6 0.07 0.01 0.01 98 1011.9
20260506041149 47 202 2.6 4.3 0.00 0.00 0.00 97 1011.9
20260506040149 47 202 2.6 4.3 0.00 0.00 0.00 97 1011.8
20260506035149 47 198 0.0 0.0 0.00 0.03 0.03 97 1011.8
20260506034149 47 198 0.0 0.0 0.00 0.03 0.03 97 1011.8
20260506033148 48 155 0.0 0.0 0.00 0.03 0.03 97 1011.9
20260506032148 48 159 0.0 0.0 0.00 0.03 0.03 96 1011.7
20260506031147 47 189 0.9 1.7 0.00 0.03 0.03 96 1011.7
20260506030143 48 193 0.0 0.0 0.00 0.03 0.03 95 1011.2
20260506025141 48 144 0.0 0.0 0.00 0.03 0.03 95 1011.1
20260506024141 48 175 0.0 0.0 0.00 0.03 0.03 95 1011.8
20260506023141 48 207 0.0 0.0 0.00 0.03 0.03 94 1011.7
20260506022141 48 230 0.0 0.0 0.00 0.03 0.03 94 1011.9
20260506021136 48 138 0.0 0.0 0.00 0.03 0.03 93 1011.6
20260506020137 48 197 0.0 0.0 0.00 0.03 0.03 92 1011.7
20260506015137 48 221 0.0 0.0 0.00 0.03 0.03 91 1011.7
20260506014136 48 144 0.0 0.0 0.00 0.03 0.03 88 1011.9
20260506013131 48 183 0.0 0.0 0.00 0.03 0.03 87 1011.5
20260506012129 49 161 0.0 0.0 0.00 0.03 0.03 85 1011.6
20260506011129 49 194 0.0 0.0 0.00 0.03 0.03 84 1011.4
20260506010124 49 192 0.0 0.0 0.00 0.03 0.03 84 1011.3
20260506005124 49 195 0.0 0.0 0.00 0.03 0.03 84 1011.0
20260506004124 49 210 0.0 0.0 0.00 0.03 0.03 82 1011.2
20260506003122 49 195 0.0 0.0 0.00 0.03 0.03 83 1011.0
20260506002120 49 202 0.0 0.0 0.00 0.03 0.03 83 1010.8
20260506001119 49 198 0.0 0.0 0.00 0.03 0.03 82 1010.7
20260506000119 49 204 0.0 0.0 0.00 0.03 0.03 82 1010.6
20260505235120 48 221 0.0 0.0 0.00 0.03 0.03 82 1010.6
20260505234119 49 258 0.0 0.0 0.00 0.03 0.03 82 1010.9
20260505233114 48 205 0.0 0.0 0.00 0.03 0.03 83 1011.0
20260505232114 49 196 0.0 0.0 0.00 0.03 0.03 83 1010.8
20260505231110 48 220 0.0 0.0 0.00 0.03 0.03 83 1010.9
20260505230109 49 223 0.0 0.0 0.00 0.03 0.03 83 1010.7
20260505225108 48 203 0.0 0.0 0.00 0.03 0.03 83 1010.7
20260505224107 48 222 0.0 0.0 0.00 0.03 0.03 84 1010.9
20260505223107 48 229 0.0 0.0 0.00 0.03 0.03 83 1010.9
20260505222105 48 289 0.0 0.9 0.00 0.03 0.03 84 1011.0
20260505221104 48 255 0.0 0.0 0.00 0.03 0.03 84 1010.8
20260505220100 48 234 0.0 0.0 0.00 0.03 0.03 84 1010.9
20260505215055 48 202 0.0 0.0 0.00 0.03 0.03 84 1010.9
20260505214055 48 225 0.0 0.0 0.00 0.03 0.03 84 1011.0
20260505213055 48 238 0.0 0.0 0.00 0.03 0.03 85 1011.0
20260505212055 48 284 0.9 1.7 0.00 0.03 0.03 84 1010.8
20260505211055 48 266 1.7 2.6 0.00 0.03 0.03 84 1010.8
20260505210054 48 263 3.5 5.2 0.00 0.03 0.03 83 1011.0
20260505205049 48 256 0.0 0.0 0.00 0.03 0.03 85 1010.9
20260505204044 48 282 0.0 0.9 0.00 0.03 0.03 84 1011.1
20260505203043 49 323 5.2 7.8 0.00 0.03 0.03 84 1010.9
20260505202040 49 282 0.0 1.7 0.00 0.03 0.03 85 1011.1
20260505201035 48 251 2.6 5.2 0.00 0.03 0.03 85 1010.9
20260505200036 49 263 0.0 1.7 0.00 0.03 0.03 85 1010.8
20260505195035 48 228 0.9 1.7 0.00 0.03 0.03 84 1010.7
20260505194033 49 240 2.6 4.3 0.00 0.03 0.03 84 1010.8
20260505193028 49 262 0.9 0.9 0.00 0.03 0.03 83 1010.6
20260505192024 49 254 2.6 4.3 0.12 0.03 0.03 79 1010.6
20260505191020 50 184 3.5 4.3 0.05 0.01 0.01 79 1010.6
20260505190016 51 255 0.0 0.0 0.00 0.00 0.00 75 1010.5
20260505185015 51 246 4.3 7.8 0.00 0.00 0.00 72 1010.4
20260505184015 53 282 5.2 7.0 0.00 0.00 0.00 68 1010.4
20260505183015 53 300 4.3 7.0 0.00 0.00 0.00 66 1010.2
20260505182014 54 317 4.3 6.1 0.00 0.00 0.00 65 1009.8
20260505181014 55 301 3.5 5.2 0.00 0.00 0.00 63 1009.5
20260505180014 55 193 2.6 4.3 0.00 0.00 0.00 62 1009.7
20260505175012 56 248 3.5 6.1 0.00 0.00 0.00 61 1009.5
20260505174010 56 325 3.5 7.8 0.00 0.00 0.00 62 1009.5
20260505173009 56 305 2.6 2.6 0.00 0.00 0.00 62 1008.9
20260505172008 56 183 2.6 5.2 0.00 0.00 0.00 66 1009.0
20260505171007 56 242 2.6 4.3 0.00 0.00 0.00 66 1008.8
20260505170006 56 271 3.5 5.2 0.00 0.00 0.00 67 1008.8
20260505165003 55 266 1.7 1.7 0.00 0.00 0.00 67 1008.7
20260505164004 55 223 2.6 4.3 0.00 0.00 0.00 68 1008.7
20260505163001 56 263 2.6 5.2 0.00 0.00 0.00 68 1008.8
20260505161959 56 328 4.3 6.1 0.00 0.00 0.00 68 1008.7
20260505160959 56 250 2.6 7.0 0.00 0.00 0.00 70 1008.7
20260505152957 56 336 4.3 6.1 0.00 0.00 0.00 73 1008.8
20260505151955 56 266 4.3 6.1 0.00 0.00 0.00 75 1008.0
20260505150954 56 281 3.5 5.2 0.00 0.00 0.00 75 1007.4
20260505124915 58 264 0.9 1.7 0.00 0.00 0.00 86 1005.7
20260505123913 58 233 2.6 4.3 0.00 0.00 0.00 85 1005.5
20260505122911 58 236 5.2 8.7 0.00 0.00 0.00 84 1005.4
20260505121911 58 230 3.5 5.2 0.00 0.00 0.00 84 1005.0
20260505120910 58 202 4.3 7.0 0.00 0.00 0.00 84 1004.8
20260505115905 57 218 3.5 6.1 0.00 0.00 0.00 84 1004.5
20260505114900 57 211 2.6 4.3 0.00 0.00 0.00 84 1004.4
20260505113859 57 187 3.5 7.0 0.00 0.00 0.00 85 1004.4
20260505112857 57 195 1.7 4.3 0.00 0.00 0.00 85 1004.1
20260505111856 57 197 2.6 2.6 0.00 0.00 0.00 84 1004.2
20260505110853 57 216 2.6 6.1 0.00 0.00 0.00 84 1004.0
20260505101844 57 201 3.5 4.3 0.00 0.00 0.00 84 1003.7
20260505100841 57 201 3.5 6.1 0.00 0.00 0.00 84 1003.6
20260505095839 57 201 2.6 5.2 0.00 0.00 0.00 84 1003.7
20260505094839 57 202 2.6 7.0 0.00 0.00 0.00 84 1003.5
20260505093837 57 201 2.6 2.6 0.00 0.00 0.00 83 1003.2
20260505092832 57 202 2.6 5.2 0.00 0.00 0.00 83 1003.2
20260505091827 57 203 3.5 6.1 0.00 0.00 0.00 83 1003.0
20260505090823 57 202 2.6 5.2 0.00 0.00 0.00 83 1003.0
20260505085823 57 204 4.3 7.0 0.00 0.00 0.00 83 1002.9
20260505084819 57 202 2.6 5.2 0.00 0.00 0.00 82 1002.7
20260505083814 58 202 2.6 4.3 0.00 0.00 0.00 81 1002.9
20260505082814 57 202 2.6 5.2 0.00 0.00 0.00 82 1002.7
20260505081813 57 199 2.6 4.3 0.00 0.00 0.00 82 1002.7
20260505080812 57 202 2.6 2.6 0.00 0.00 0.00 82 1002.6
20260505075809 58 203 3.5 5.2 0.00 0.00 0.00 81 1002.6
20260505074804 58 200 0.0 0.9 0.00 0.00 0.00 81 1002.5
20260505073804 58 197 4.3 7.0 0.00 0.00 0.00 80 1003.1
20260505072805 59 200 4.3 7.0 0.00 0.00 0.00 80 1003.0
20260505071802 59 202 3.5 6.1 0.00 0.00 0.00 80 1002.8
20260505070757 59 204 2.6 4.3 0.00 0.00 0.00 80 1003.1
20260505065754 59 198 5.2 9.6 0.00 0.00 0.00 80 1003.1
20260505064749 59 201 4.3 7.8 0.00 0.00 0.00 80 1003.2
20260505063744 58 201 4.3 7.0 0.00 0.00 0.00 81 1003.5
20260505062742 59 203 6.1 8.7 0.00 0.00 0.00 81 1003.5
20260505061742 59 202 4.3 8.7 0.00 0.00 0.00 79 1003.6
20260505060737 59 191 4.3 5.2 0.00 0.00 0.00 79 1003.3
20260505055735 59 200 6.1 9.6 0.00 0.00 0.00 78 1003.7
20260505054735 60 195 5.2 6.1 0.00 0.00 0.00 77 1003.8
20260505053732 59 196 4.3 7.0 0.00 0.00 0.00 78 1004.1
20260505052731 59 187 4.3 7.0 0.00 0.00 0.00 78 1004.2